Location: Casco Millpond
(44.5581°N, 87.6111°W)
Time: 21:47:16
(UTC+00:00)

Cosmos 1743 Rocket - Pass Details

Date: 16 January 2026
Orbit: 597 x 626 km, 82.6° (Epoch: 10 February)

Event Time Altitude Azimuth Distance (km) Brightness Sun altitude
Rises 12:21:56 0° 215° (SW) 2,898 6.8 -10.8°
Reaches altitude 10° 12:24:24 10° 226° (SW) 1,995 5.9 -10.4°
Maximum altitude 12:28:14 28° 287° (WNW) 1,168 4.4 -9.7°
Drops below altitude 10° 12:32:05 10° 347° (NNW) 1,998 5.9 -9.1°
Sets 12:34:34 0° 359° (N) 2,904 6.8 -8.7°
